This is the latest recevied weather packets stored in our database for station/object KR0L-13. If no packets are shown the sender has not sent any weather packets the latest 1 day(s).
| Time | Temp. | Humidity | Pressure | Rain* | Wind** | Luminosity | Snow |
|---|---|---|---|---|---|---|---|
| 1778058022 | 6.67° C | 93% | 1016.8 hPa | 0 mm | - | - | - |
| 1778057422 | 6.67° C | 93% | 1017.2 hPa | 0 mm | - | - | - |
| 1778056822 | 6.67° C | 93% | 1017.6 hPa | 0 mm | - | - | - |
| 1778055622 | 6.67° C | 92% | 1017.1 hPa | 0 mm | - | - | - |
| 1778055022 | 6.67° C | 92% | 1016.5 hPa | 0 mm | - | - | - |
| 1778054422 | 6.67° C | 92% | 1016.1 hPa | 0 mm | - | - | - |
| 1778053822 | 6.67° C | 92% | 1015.6 hPa | 0 mm | - | - | - |
| 1778053222 | 6.67° C | 92% | 1015.5 hPa | 0 mm | - | - | - |
| 1778052622 | 6.67° C | 92% | 1015.7 hPa | 0.25 mm | - | - | - |
| 1778052022 | 6.67° C | 92% | 1015.5 hPa | 0.51 mm | - | - | - |
| 1778051422 | 6.67° C | 92% | 1015.8 hPa | 0.76 mm | - | - | - |
| 1778050822 | 6.67° C | 92% | 1015.4 hPa | 0.76 mm | - | - | - |
| 1778050222 | 6.67° C | 92% | 1015.7 hPa | 1.02 mm | - | - | - |
| 1778049622 | 7.22° C | 91% | 1015.8 hPa | 1.27 mm | - | - | - |
| 1778048422 | 7.22° C | 91% | 1015.8 hPa | 1.02 mm | - | - | - |
| 1778047822 | 7.22° C | 91% | 1015.4 hPa | 0.76 mm | - | - | - |
| 1778047222 | 7.22° C | 91% | 1015.3 hPa | 0.76 mm | - | - | - |
| 1778044822 | 7.22° C | 91% | 1015 hPa | 0 mm | - | - | - |
| 1778043622 | 7.22° C | 90% | 1014.7 hPa | 0.25 mm | - | - | - |
| 1778036421 | 9.44° C | 71% | 1014.6 hPa | 0 mm | - | - | - |
| 1778035821 | 9.44° C | 72% | 1014.4 hPa | 0 mm | - | - | - |
| 1778035221 | 9.44° C | 71% | 1014.2 hPa | 0 mm | - | - | - |
| 1778034021 | 9.44° C | 81% | 1013.8 hPa | 0 mm | - | - | - |
| 1778033421 | 9.44° C | 82% | 1013.8 hPa | 0 mm | - | - | - |
| 1778032221 | 9.44° C | 82% | 1013.3 hPa | 0 mm | - | - | - |
* Rain latest hour (hover to see other rain measurements)
** Current wind speed in m/s (hover to see current wind gust speed)